Weather History for KACK - February, 2014

Change the Weather History Date:

Monday, February 3, 2014

  Actual Average Record
Temperature  
Mean Temperature 36 °F -  
Max Temperature 39 °F 38 °F 54 °F (1968)
Min Temperature 32 °F 23 °F 5 °F (1971)
Degree Days  
Heating Degree Days 30    
Moisture  
Dew Point 33 °F    
Average Humidity 90    
Maximum Humidity 97    
Minimum Humidity 79    
Precipitation  
Precipitation 0.67 in - - ()
Sea Level Pressure  
Sea Level Pressure 30.12 in    
Wind  
Wind Speed 11 mph (NNE)    
Max Wind Speed 17 mph    
Max Gust Speed 21 mph    
Visibility 6 miles    
Events Fog , Rain , Snow    
Averages and records for this station are not official NWS values.
T = Trace of Precipitation, MM = Missing Value Source: NWS Daily Summary

Daily Weather History Graph

Daily Weather History Graph

Search for Another Location

Airport or City:

Trip Planner

Search our weather history database for the weather conditions in past years. The results will help you decide how hot, cold, wet, or windy it might be!

Date:

Astronomy

Feb. 03, 2014 Rise Set
Actual Time 6:49 AM EST 4:59 PM EST
Civil Twilight 6:20 AM EST 5:28 PM EST
Nautical Twilight 5:47 AM EST 6:01 PM EST
Astronomical Twilight 5:15 AM EST 6:33 PM EST
Moon 8:46 AM EST (2/3) 9:49 PM EST (2/3)
Length of Visible Light 11h 08m
Length of Day
10h 09m
Waxing Crescent, 19% of the Moon is Illuminated
Feb 3
Waxing Crescent
Feb 6
First Quarter
Feb 14
Full
Feb 22
Last Quarter
Mar 1
New

Hourly Weather History & Observations

Time (EST) Temp. Windchill Dew Point Humidity Pressure Visibility Wind Dir Wind Speed Gust Speed Precip Events Conditions
12:53 AM 39.9 °F 35.1 °F 35.1 °F 83% 30.04 in 10.0 mi NNW 6.9 mph - N/A   Mostly Cloudy
1:53 AM 39.0 °F 34.8 °F 34.0 °F 82% 30.05 in 10.0 mi NNW 5.8 mph - N/A   Clear
2:53 AM 39.0 °F 33.4 °F 34.0 °F 82% 30.06 in 10.0 mi North 8.1 mph - N/A   Overcast
3:53 AM 37.9 °F 30.5 °F 32.0 °F 79% 30.07 in 10.0 mi North 11.5 mph - N/A   Mostly Cloudy
4:53 AM 37.9 °F 30.9 °F 32.0 °F 79% 30.08 in 10.0 mi North 10.4 mph - N/A   Overcast
5:53 AM 37.9 °F 30.9 °F 34.0 °F 86% 30.10 in 10.0 mi North 10.4 mph - 0.01 in Rain Light Rain
6:53 AM 37.0 °F 29.8 °F 34.0 °F 89% 30.11 in 4.0 mi North 10.4 mph - 0.05 in Rain Rain
7:23 AM 37.4 °F 30.3 °F 35.6 °F 93% 30.13 in 6.0 mi North 10.4 mph - 0.04 in Rain Light Rain
7:53 AM 37.0 °F 28.9 °F 35.1 °F 93% 30.14 in 4.0 mi North 12.7 mph - 0.08 in Rain Light Rain
8:53 AM 37.9 °F 32.1 °F 37.0 °F 97% 30.13 in 3.0 mi North 8.1 mph - 0.02 in Rain Light Rain
9:14 AM 39.2 °F 31.6 °F 37.4 °F 93% 30.12 in 4.0 mi NE 12.7 mph - 0.03 in Rain Rain
9:22 AM 37.4 °F 27.8 °F 35.6 °F 93% 30.11 in 3.0 mi NE 17.3 mph - 0.05 in Rain Rain
9:32 AM 37.4 °F 29.3 °F 35.6 °F 93% 30.13 in 4.0 mi NE 12.7 mph - 0.06 in Rain Light Rain
9:53 AM 37.0 °F 29.3 °F 35.1 °F 93% 30.13 in 6.0 mi NE 11.5 mph - 0.07 in Rain Light Rain
10:53 AM 37.0 °F 28.1 °F 34.0 °F 89% 30.13 in 4.0 mi NE 15.0 mph 20.7 mph 0.08 in Rain Rain
11:14 AM 35.6 °F 27.1 °F 33.8 °F 93% 30.14 in 5.0 mi NE 12.7 mph - 0.03 in Rain , Snow Light Rain
11:39 AM 33.8 °F 24.8 °F 32.0 °F 93% 30.13 in 1.8 mi NE 12.7 mph - 0.07 in Snow Light Snow
11:53 AM 33.1 °F 23.9 °F 30.9 °F 92% 30.13 in 0.8 mi NNE 12.7 mph - 0.09 in Snow Light Snow
12:12 PM 32.0 °F 22.5 °F 30.2 °F 93% 30.12 in 0.8 mi NNE 12.7 mph - 0.02 in Snow Light Snow
12:53 PM 32.0 °F 23.6 °F 30.9 °F 96% 30.10 in 0.5 mi NNE 10.4 mph - 0.06 in Fog , Snow Snow
1:53 PM 32.0 °F 22.1 °F 30.9 °F 96% 30.07 in 0.5 mi NE 13.8 mph - 0.05 in Fog , Snow Snow
2:53 PM 32.0 °F 21.6 °F 30.9 °F 96% 30.08 in 0.5 mi NNE 15.0 mph - 0.05 in Fog , Snow Snow
3:53 PM 32.0 °F 21.2 °F 30.9 °F 96% 30.07 in 0.5 mi NE 16.1 mph - 0.05 in Fog , Snow Snow
4:53 PM 33.1 °F 22.6 °F 30.9 °F 92% 30.09 in 2.0 mi NNE 16.1 mph - 0.02 in Snow Light Snow
5:06 PM 33.8 °F 24.8 °F 30.2 °F 87% 30.09 in 1.8 mi NNE 12.7 mph - 0.00 in Snow Light Snow
5:53 PM 33.1 °F 23.4 °F 32.0 °F 96% 30.09 in 5.0 mi NE 13.8 mph - 0.02 in Snow Light Snow
6:53 PM 34.0 °F 24.2 °F 32.0 °F 92% 30.10 in 5.0 mi NNE 15.0 mph - 0.01 in Snow Light Snow
7:53 PM 34.0 °F 24.6 °F 32.0 °F 92% 30.12 in 9.0 mi NNE 13.8 mph - 0.01 in Rain , Snow Light Rain
8:53 PM 34.0 °F 24.2 °F 30.9 °F 89% 30.15 in 10.0 mi NNE 15.0 mph - 0.00 in Rain Light Rain
9:02 PM 33.8 °F 24.3 °F 30.2 °F 87% 30.16 in 10.0 mi NNE 13.8 mph - 0.00 in Rain Light Rain
9:12 PM 33.8 °F 23.9 °F 30.2 °F 87% 30.16 in 10.0 mi NNE 15.0 mph - 0.00 in   Overcast
9:53 PM 34.0 °F 23.8 °F 30.9 °F 89% 30.18 in 10.0 mi North 16.1 mph - 0.00 in   Overcast
10:53 PM 34.0 °F 24.2 °F 30.9 °F 89% 30.21 in 10.0 mi North 15.0 mph - 0.00 in   Overcast
11:53 PM 33.1 °F 23.0 °F 30.0 °F 89% 30.23 in 10.0 mi North 15.0 mph - N/A   Overcast